Simultaneous Nadir Overpasses (SNOs) Predictions

Prediction of SNOs between AQUA and METOP-B Satellite Orbit:

Table of predicted SNOs for the next 14.0 days since TLE Epoch: 7/23/2022
Index Date (AQUA) Time (AQUA) Lat,Lon (AQUA) SZA (AQUA ) Date (METOP-B) Time (METOP-B) Lat,Lon (METOP-B) SZA (METOP-B ) Distance(km) Time Diff (sec)
1 07/23/2022 21:15:26 73.64,-143.43 53.72 07/23/2022 21:14:17 73.56,-145.04 53.73 51.29 69
2 07/23/2022 22:04:58 -74.00, 23.41 125.88 07/23/2022 22:04:50 -74.00, 23.34 125.87 2.02 8
3 07/23/2022 22:54:27 74.10,-169.17 54.23 07/23/2022 22:55:28 74.09,-169.12 54.21 1.77 61
4 07/26/2022 16:49:10 73.99, -77.61 54.71 07/26/2022 16:48:30 73.98, -77.63 54.71 1.58 40
5 07/26/2022 17:38:36 -74.04, 89.92 125.23 07/26/2022 17:39:11 -74.03, 89.81 125.24 3.82 35
6 07/29/2022 11:33:18 -73.96,-178.56 124.68 07/29/2022 11:32:11 -73.97,-178.58 124.66 1.11 67
7 07/29/2022 12:22:46 74.02, -11.05 55.39 07/29/2022 12:22:49 74.05, -11.05 55.42 3.74 3
8 07/29/2022 13:12:15 -74.21, 156.14 124.40 07/29/2022 13:13:27 -74.24, 156.76 124.40 18.88 72
9 08/01/2022 07:06:55 -74.00,-112.04 123.95 08/01/2022 07:06:31 -74.03,-112.02 123.92 3.52 24
10 08/01/2022 07:56:23 74.06, 55.46 56.12 08/01/2022 07:57:10 74.06, 55.39 56.12 2.28 47
11 08/04/2022 01:51:05 73.99, 146.97 56.75 08/04/2022 01:50:11 73.99, 146.97 56.77 0.85 54
12 08/04/2022 02:40:32 -74.07, -45.58 123.16 08/04/2022 02:40:52 -74.04, -45.58 123.18 3.06 20



Historial Predications of SNOs between AQUA and METOP-B
